sat.trackr.live / text

‹ back to catalog

STARLINK-36195

NORAD 67124 · 2025-299Y

PAYLOAD ACTIVE UNKNOWN

§ Identity

Operator
Country
US
Launch date
2025-12-15
Launch site
AFETR
Launch vehicle
Mass (kg)
RCS (m²)

Purposes: comms

External: N2YO · Heavens-Above · Gunter

§ Orbital elements

Epoch: 2026-05-25T04:54:47.566080Z

Period
94.27 min
Inclination
43.0004°
Eccentricity
0.0001542
Mean motion
15.27587496 rev/d
Perigee alt
482.0 km
Apogee alt
484.1 km
Semi-major
6,861.2 km
B*
6.3141e-4
RAAN
96.4058°
Arg perigee
262.6580°
Mean anomaly
97.4096°
Rev number
2,482

§ Raw data

STARLINK-361951 67124U 25299Y   26145.20471720  .00017158  00000+0  63141-3 0  99972 67124  43.0004  96.4058 0001542 262.6580  97.4096 15.27587496 24821

JSON: /api/v1/satellites/67124 · /tle

For live sub-satellite position, see the globe view (requires WebGL).

§ Visibility from observer

Set your observer location to see the next 7 days of passes ≥ 10°. The values pass through the URL so the page stays shareable.

No JS? Fill the form by hand. The geolocation button needs JavaScript.